Location: West Chester
(39.9610°N, 75.6060°W)
Time: 19:03:56
(UTC-04:00)

ARIANE 6 FM1 Upper Stage - Pass Details

Date: 19 September 2024
Orbit: 563 x 594 km, 62.0° (Epoch: 11 October)

Event Time Altitude Azimuth Distance (km) Brightness Sun altitude
Exits shadow 04:50:14 - 330° (NNW) 2,884 6.2 -22.7°
Rises 04:50:21 0° 331° (NNW) 2,840 6.2 -22.7°
Reaches altitude 10° 04:52:46 10° 340° (NNW) 1,938 5.4 -22.3°
Maximum altitude 04:56:49 35° 47° (NE) 972 4.4 -21.6°
Drops below altitude 10° 05:00:51 10° 114° (ESE) 1,933 6.0 -20.8°
Sets 05:03:15 0° 123° (ESE) 2,831 6.8 -20.4°
